• In Deutschland
  • Länderverzeichnis
  • Für 7 Tage
  • Wassertemperatur
  • Satellitenkarten
  • Wetterkarte
  • Widgets
  • user-avatar
    Anmelden

    Stündliche Wetter Berat

    Heute, 22 Juli, Samstag

    Zeit Temperatur Niederschläge Wind Luftdruck Luftfeuchtigkeit
    00:00 +26°C° 0 mm 1 m/S 744 mmHg 57%
    01:00 +26°C° 0 mm 1 m/S 744 mmHg 57%
    02:00 +26°C° 0 mm 1 m/S 744 mmHg 58%
    03:00 +25°C° 0 mm 1 m/S 744 mmHg 58%
    04:00 +25°C° 0 mm 1 m/S 744 mmHg 59%
    05:00 +27°C° 0 mm 1 m/S 744 mmHg 55%
    06:00 +29°C° 0 mm 1 m/S 745 mmHg 51%
    07:00 +31°C° 0 mm 1 m/S 745 mmHg 47%
    08:00 +32°C° 0 mm 1 m/S 745 mmHg 42%
    09:00 +34°C° 0 mm 1 m/S 745 mmHg 38%
    10:00 +36°C° 0 mm 2 m/S 745 mmHg 33%
    11:00 +37°C° 0 mm 2 m/S 745 mmHg 31%
    12:00 +38°C° 0 mm 3 m/S 745 mmHg 30%
    13:00 +39°C° 0 mm 3 m/S 745 mmHg 28%
    14:00 +38°C° 0 mm 3 m/S 745 mmHg 29%
    15:00 +38°C° 0 mm 3 m/S 745 mmHg 31%
    16:00 +37°C° 0 mm 3 m/S 744 mmHg 32%
    17:00 +35°C° 0 mm 3 m/S 744 mmHg 38%
    18:00 +32°C° 0 mm 2 m/S 744 mmHg 44%
    19:00 +29°C° 0 mm 1 m/S 744 mmHg 49%
    20:00 +28°C° 0 mm 1 m/S 744 mmHg 51%
    21:00 +28°C° 0 mm 1 m/S 745 mmHg 52%
    22:00 +27°C° 0 mm 1 m/S 745 mmHg 53%
    23:00 +26°C° 0 mm 1 m/S 745 mmHg 53%

    Morgen, 23 Juli, Sonntag

    Zeit Temperatur Niederschläge Wind Luftdruck Luftfeuchtigkeit
    00:00 +26°C° 0 mm 1 m/S 745 mmHg 52%
    01:00 +26°C° 0 mm 1 m/S 745 mmHg 52%
    02:00 +26°C° 0 mm 1 m/S 745 mmHg 50%
    03:00 +25°C° 0 mm 2 m/S 744 mmHg 49%
    04:00 +25°C° 0 mm 2 m/S 744 mmHg 47%
    05:00 +27°C° 0 mm 2 m/S 744 mmHg 44%
    06:00 +29°C° 0 mm 1 m/S 744 mmHg 41%
    07:00 +31°C° 0 mm 1 m/S 744 mmHg 37%
    08:00 +34°C° 0 mm 2 m/S 744 mmHg 34%
    09:00 +35°C° 0 mm 2 m/S 744 mmHg 30%
    10:00 +37°C° 0 mm 3 m/S 744 mmHg 27%
    11:00 +37°C° 0 mm 3 m/S 744 mmHg 27%
    12:00 +38°C° 0 mm 3 m/S 743 mmHg 27%
    13:00 +38°C° 0 mm 3 m/S 743 mmHg 27%
    14:00 +38°C° 0 mm 3 m/S 743 mmHg 29%
    15:00 +38°C° 0 mm 3 m/S 742 mmHg 31%
    16:00 +37°C° 0 mm 3 m/S 742 mmHg 33%
    17:00 +35°C° 0 mm 3 m/S 742 mmHg 40%
    18:00 +31°C° 0 mm 2 m/S 742 mmHg 47%
    19:00 +29°C° 0 mm 2 m/S 742 mmHg 55%
    20:00 +28°C° 0 mm 1 m/S 742 mmHg 58%
    21:00 +27°C° 0 mm 1 m/S 743 mmHg 61%
    22:00 +26°C° 0 mm 1 m/S 743 mmHg 64%
    23:00 +26°C° 0 mm 1 m/S 743 mmHg 65%

    übermorgen, 24 Juli, Montag

    Zeit Temperatur Niederschläge Wind Luftdruck Luftfeuchtigkeit
    00:00 +25°C° 0 mm 1 m/S 742 mmHg 65%
    01:00 +25°C° 0 mm 1 m/S 742 mmHg 65%
    02:00 +25°C° 0 mm 1 m/S 742 mmHg 65%
    03:00 +25°C° 0 mm 1 m/S 742 mmHg 64%
    04:00 +24°C° 0 mm 1 m/S 741 mmHg 64%
    05:00 +26°C° 0 mm 1 m/S 741 mmHg 58%
    06:00 +28°C° 0 mm 1 m/S 741 mmHg 53%
    07:00 +30°C° 0 mm 1 m/S 741 mmHg 47%
    08:00 +32°C° 0 mm 1 m/S 741 mmHg 42%
    09:00 +34°C° 0 mm 1 m/S 741 mmHg 36%
    10:00 +37°C° 0 mm 2 m/S 741 mmHg 31%
    11:00 +37°C° 0 mm 2 m/S 740 mmHg 29%
    12:00 +38°C° 0 mm 3 m/S 740 mmHg 26%
    13:00 +39°C° 0 mm 3 m/S 739 mmHg 24%
    14:00 +38°C° 0 mm 3 m/S 739 mmHg 24%
    15:00 +38°C° 0 mm 3 m/S 739 mmHg 25%
    16:00 +38°C° 0 mm 3 m/S 738 mmHg 26%
    17:00 +35°C° 0 mm 2 m/S 738 mmHg 32%
    18:00 +32°C° 0 mm 2 m/S 738 mmHg 39%
    19:00 +29°C° 0 mm 1 m/S 738 mmHg 46%
    20:00 +28°C° 0 mm 2 m/S 738 mmHg 48%
    21:00 +28°C° 0 mm 2 m/S 738 mmHg 49%
    22:00 +27°C° 0 mm 3 m/S 738 mmHg 51%
    23:00 +26°C° 0 mm 3 m/S 738 mmHg 53%

    25 Juli, Dienstag

    Zeit Temperatur Niederschläge Wind Luftdruck Luftfeuchtigkeit
    00:00 +26°C° 0 mm 4 m/S 737 mmHg 55%
    01:00 +25°C° 0 mm 4 m/S 737 mmHg 58%
    02:00 +25°C° 0 mm 4 m/S 737 mmHg 59%
    03:00 +25°C° 0 mm 4 m/S 737 mmHg 60%
    04:00 +23°C° 0 mm 4 m/S 736 mmHg 61%
    05:00 +26°C° 0 mm 4 m/S 736 mmHg 59%
    06:00 +27°C° 0 mm 3 m/S 736 mmHg 57%
    07:00 +28°C° 0 mm 3 m/S 736 mmHg 54%
    08:00 +30°C° 0 mm 4 m/S 736 mmHg 49%
    09:00 +32°C° 0 mm 5 m/S 736 mmHg 44%
    10:00 +33°C° 0 mm 5 m/S 736 mmHg 38%
    11:00 +33°C° 0 mm 5 m/S 736 mmHg 38%
    12:00 +33°C° 0 mm 5 m/S 736 mmHg 38%
    13:00 +33°C° 0 mm 5 m/S 736 mmHg 38%
    14:00 +33°C° 0 mm 4 m/S 736 mmHg 38%
    15:00 +33°C° 0 mm 4 m/S 736 mmHg 38%
    16:00 +33°C° 0 mm 4 m/S 736 mmHg 38%
    17:00 +30°C° 0 mm 3 m/S 736 mmHg 44%
    18:00 +28°C° 0 mm 3 m/S 737 mmHg 50%
    19:00 +26°C° 0 mm 2 m/S 737 mmHg 55%
    20:00 +25°C° 0 mm 2 m/S 737 mmHg 59%
    21:00 +24°C° 0 mm 1 m/S 737 mmHg 62%
    22:00 +23°C° 0 mm 1 m/S 737 mmHg 65%
    23:00 +23°C° 0 mm 1 m/S 738 mmHg 66%

    26 Juli, Mittwoch

    Zeit Temperatur Niederschläge Wind Luftdruck Luftfeuchtigkeit
    00:00 +22°C° 0 mm 1 m/S 738 mmHg 67%
    01:00 +22°C° 0 mm 1 m/S 738 mmHg 68%
    02:00 +22°C° 0 mm 1 m/S 738 mmHg 69%
    03:00 +22°C° 0 mm 1 m/S 738 mmHg 69%
    04:00 +21°C° 0 mm 1 m/S 737 mmHg 70%
    05:00 +23°C° 0 mm 1 m/S 738 mmHg 65%
    06:00 +25°C° 0 mm 1 m/S 738 mmHg 59%
    07:00 +27°C° 0 mm 1 m/S 738 mmHg 54%
    08:00 +28°C° 0 mm 1 m/S 738 mmHg 49%
    09:00 +30°C° 0 mm 2 m/S 738 mmHg 44%
    10:00 +32°C° 0 mm 2 m/S 738 mmHg 39%
    11:00 +33°C° 0 mm 3 m/S 738 mmHg 38%
    12:00 +34°C° 0 mm 3 m/S 737 mmHg 37%
    13:00 +34°C° 0 mm 4 m/S 737 mmHg 36%
    14:00 +34°C° 0 mm 4 m/S 737 mmHg 39%
    15:00 +33°C° 0 mm 4 m/S 737 mmHg 42%
    16:00 +32°C° 0 mm 4 m/S 737 mmHg 45%
    17:00 +30°C° 0 mm 3 m/S 737 mmHg 52%
    18:00 +28°C° 0 mm 3 m/S 737 mmHg 58%
    19:00 +26°C° 0 mm 2 m/S 737 mmHg 65%
    20:00 +25°C° 0 mm 2 m/S 737 mmHg 68%
    21:00 +24°C° 0 mm 2 m/S 738 mmHg 72%
    22:00 +23°C° 0 mm 2 m/S 738 mmHg 76%
    23:00 +23°C° 0 mm 2 m/S 738 mmHg 78%

    27 Juli, Donnerstag

    Zeit Temperatur Niederschläge Wind Luftdruck Luftfeuchtigkeit
    00:00 +21°C° 0 mm 2 m/S 738 mmHg 79%
    01:00 +21°C° 0 mm 2 m/S 738 mmHg 81%
    02:00 +21°C° 0 mm 2 m/S 738 mmHg 82%
    03:00 +21°C° 0 mm 2 m/S 738 mmHg 83%
    04:00 +20°C° 0 mm 2 m/S 738 mmHg 84%
    05:00 +23°C° 0,2 mm 2 m/S 738 mmHg 78%
    06:00 +24°C° 0,2 mm 2 m/S 738 mmHg 72%
    07:00 +25°C° 0,2 mm 2 m/S 738 mmHg 66%
    08:00 +27°C° 0,2 mm 2 m/S 738 mmHg 60%
    09:00 +28°C° 0,2 mm 3 m/S 739 mmHg 54%
    10:00 +29°C° 0,2 mm 3 m/S 739 mmHg 48%
    11:00 +29°C° 0,2 mm 3 m/S 739 mmHg 46%
    12:00 +30°C° 0,2 mm 3 m/S 739 mmHg 44%
    13:00 +30°C° 0,2 mm 4 m/S 739 mmHg 42%
    14:00 +30°C° 0,1 mm 4 m/S 739 mmHg 44%
    15:00 +29°C° 0,1 mm 4 m/S 739 mmHg 46%
    16:00 +29°C° 0,1 mm 4 m/S 739 mmHg 47%
    17:00 +27°C° 0 mm 3 m/S 739 mmHg 53%
    18:00 +26°C° 0 mm 2 m/S 739 mmHg 59%
    19:00 +24°C° 0 mm 2 m/S 739 mmHg 66%
    20:00 +23°C° 0 mm 2 m/S 740 mmHg 70%
    21:00 +22°C° 0 mm 1 m/S 740 mmHg 75%
    22:00 +21°C° 0 mm 1 m/S 740 mmHg 79%
    23:00 +21°C° 0 mm 1 m/S 740 mmHg 80%
    Mehr zeigen